Temp
13 13 13 14 14 13 13 12 12 11 9 9 9 9 9 9 9 9 9 9 8 9 8 9 9 8 8 8 9 11 11 11 11 10 10 9 9 11 13 13 14 14 15 17 16 16 16
11 12 12 13 13 13 13 12 12 11 10 9 9 9 9 8 8 8 8 9 8 8 8 8 8 8 8 7 11 11 11 11 10 10 10 10 10 10 13 13 13 15 15 15 15 16 15
10 10 11 12 13 13 13 13 12 11 10 9 9 9 8 8 8 8 8 8 8 8 8 8 8 8 8 8 11 11 11 11 10 10 10 9 9 10 11 13 14 15 14 15 15 15 15
9 9 10 10 11 12 13 13 12 11 11 9 9 9 8 8 8 7 8 8 7 7 8 8 8 8 7 10 10 11 10 10 9 9 9 9 10 10 11 12 13 15 13 14 13 14 15
9 9 9 9 9 10 11 13 12 12 11 9 9 8 8 8 7 7 7 7 7 8 8 8 8 8 9 10 9 9 10 9 9 9 8 10 10 11 12 12 13 13 12 13 14 13 14
8 8 8 8 9 9 10 11 12 12 11 9 9 8 8 8 7 7 7 7 9 8 8 8 8 8 10 9 8 8 9 9 10 10 9 10 10 11 11 10 14 13 12 13 13 14 13
8 8 8 8 8 9 9 10 10 12 11 9 9 8 8 7 7 7 7 8 8 8 8 9 10 11 10 9 8 8 9 9 10 9 9 10 11 11 12 11 14 15 14 14 13 13 13
8 8 8 8 8 8 9 10 9 11 11 9 9 8 7 7 7 7 7 7 9 9 9 10 10 10 10 9 9 10 9 9 9 10 10 10 11 12 12 12 14 16 15 14 13 13 13
7 7 7 7 7 8 8 9 9 11 11 9 8 8 8 8 7 8 8 9 9 10 8 12 12 11 10 8 10 9 9 9 10 10 10 11 11 12 13 11 14 14 14 13 15 14 14
7 7 7 7 7 7 7 8 9 10 10 9 8 7 7 8 8 8 8 9 9 9 5 10 11 11 11 10 10 11 9 10 10 11 11 11 11 11 12 12 14 14 15 14 13 13 14
6 7 7 7 7 7 7 7 8 9 10 9 8 7 7 7 8 8 9 9 9 9 5 11 12 12 12 11 11 12 10 10 12 12 11 11 10 13 13 13 15 15 15 15 14 14 14
6 7 6 6 6 7 6 7 8 9 10 9 7 7 7 6 7 9 9 9 9 5 5 10 12 12 11 11 11 12 12 11 13 12 12 12 13 13 13 14 16 16 15 14 14 15 13
6 6 7 6 6 6 6 7 7 8 9 8 7 7 7 7 8 9 9 8 6 5 10 10 11 12 12 12 12 12 12 12 11 11 11 12 12 12 13 15 15 15 13 12 13 12 13
6 6 6 6 6 6 6 7 6 8 9 7 7 7 7 8 9 9 9 6 6 9 9 13 13 12 11 12 13 13 12 11 12 11 10 10 12 12 12 13 13 14 14 13 14 13 14
6 6 6 6 6 6 6 6 6 7 8 7 6 6 7 8 8 8 6 3 7 9 12 13 13 11 11 12 12 12 12 12 12 12 10 10 11 12 13 12 13 15 12 14 12 11 12
6 6 6 6 6 6 6 6 6 9 8 6 6 7 8 8 8 8 6 8 9 11 13 14 12 12 10 11 12 12 13 13 13 12 12 12 10 12 13 14 14 14 15 13 9 12 14
6 6 6 6 5 5 5 5 5 7 6 6 7 8 7 8 8 8 7 6 11 13 14 13 13 13 12 11 11 12 13 13 14 14 14 12 10 11 13 12 13 13 13 13 11 11 11
6 6 6 6 5 5 5 5 5 6 6 6 7 8 7 8 7 8 9 10 13 12 13 14 13 14 12 11 11 12 13 13 14 14 13 13 10 8 12 13 14 13 14 12 10 12 9
5 5 5 5 5 5 5 5 5 5 6 7 7 7 7 7 8 8 9 12 12 12 12 12 13 14 14 12 12 12 12 13 14 13 13 13 9 8 10 11 12 13 14 14 12 10 9
5 5 5 5 5 5 5 4 4 6 7 7 7 7 7 7 7 7 9 12 11 12 13 13 14 14 14 14 13 12 13 13 13 13 13 13 10 10 9 11 11 12 13 13 11 7 11
5 4 5 5 5 5 4 4 4 6 7 7 7 7 7 8 7 7 8 11 11 12 13 13 13 13 14 13 12 12 13 12 13 13 12 11 9 8 12 13 12 12 13 12 11 13 12
5 5 5 5 5 5 4 4 4 6 7 7 8 7 7 6 7 7 8 10 11 11 12 12 12 13 13 12 12 11 12 13 12 11 12 10 8 10 10 12 12 12 12 12 11 13 13
5 4 5 5 5 4 3 3 5 7 6 6 6 7 8 8 6 7 7 10 13 11 12 12 12 11 11 12 12 11 12 12 11 10 10 11 8 7 8 9 11 10 10 11 12 12 13
4 4 5 5 5 4 4 3 6 7 6 5 6 7 8 7 8 8 9 11 13 12 11 10 11 11 11 11 12 11 11 11 11 11 12 10 9 7 7 8 7 11 12 12 11 12 12
5 4 5 5 5 4 3 3 4 7 6 6 6 7 8 7 8 8 10 10 10 10 10 9 9 9 9 11 10 10 10 12 11 10 11 11 9 10 7 6 9 12 12 12 12 11 10
4 4 5 5 5 3 3 4 5 6 6 6 6 6 7 8 6 5 9 9 8 8 8 8 9 9 10 9 10 9 9 9 9 11 11 10 10 9 8 8 10 11 12 13 12 9 9
4 4 5 5 4 3 4 7 6 6 6 6 6 6 6 4 2 3 7 8 7 7 6 8 9 10 9 8 9 9 8 10 9 9 10 10 10 8 8 7 9 10 12 12 10 10 9
4 4 5 5 4 4 5 7 7 5 5 5 6 6 6 2 2 2 3 5 6 6 7 7 8 8 7 9 9 8 8 9 9 9 8 8 7 7 8 8 9 11 11 11 9 8 8
4 4 5 5 4 4 5 6 6 6 5 6 6 5 6 2 2 3 3 4 4 4 4 4 6 5 6 5 6 7 9 7 7 8 9 9 8 8 8 9 9 8 9 8 7 7 8
Height
845 843 841 837 834 831 825 823 823 820 822 824 818 815 814 812 811 806 805 803 801 800 799 798 797 795 791 790 784 779 779 777 775 772 770 773 773 766 762 761 763 770 763 759 760 765 769
843 839 836 833 830 827 822 817 818 815 814 817 814 812 809 809 806 803 802 801 799 798 797 795 795 793 792 791 779 779 777 776 774 772 771 770 767 767 760 759 763 761 759 763 764 774 774
843 838 834 829 826 822 819 814 812 811 809 810 810 807 806 804 805 800 798 798 796 795 794 793 793 792 790 784 777 777 775 774 773 771 770 767 763 765 758 757 757 759 760 764 770 776 779
840 835 832 828 823 818 813 810 806 806 806 806 805 803 801 800 801 796 796 794 793 793 791 791 791 791 786 778 777 776 774 773 772 771 769 768 767 769 764 760 760 766 764 768 779 778 778
837 834 830 826 822 816 812 806 804 801 800 801 800 801 796 797 796 792 792 792 790 790 789 789 790 789 781 778 779 776 775 774 772 770 769 768 767 764 764 766 766 767 771 779 783 788 784
835 831 828 823 819 814 810 806 800 795 794 796 797 797 790 792 792 790 787 789 785 787 787 787 788 789 780 777 776 774 773 774 772 769 766 767 766 764 770 779 762 767 775 783 789 790 788
831 828 824 821 817 812 807 803 795 790 790 790 792 789 788 788 789 787 786 786 787 790 786 782 779 777 776 776 775 774 773 774 772 773 770 769 769 771 760 769 762 760 768 773 784 785 788
829 825 821 817 814 809 804 799 794 788 784 785 786 785 787 783 786 785 786 786 783 787 786 777 776 776 775 776 776 774 775 773 771 768 770 770 767 764 765 769 765 756 767 778 785 787 789
827 822 818 815 811 805 800 796 790 785 778 779 780 784 781 777 783 783 785 784 783 785 788 774 772 772 774 776 774 775 776 772 767 767 768 768 767 765 765 772 762 765 770 783 785 792 794
824 820 815 811 807 803 796 791 787 783 776 774 775 778 777 772 782 782 784 783 783 785 805 778 772 772 773 771 771 768 770 771 768 764 763 765 770 766 762 767 763 771 769 778 792 795 793
821 816 811 807 802 798 792 787 782 779 776 773 771 776 773 774 775 781 782 782 783 786 824 774 770 769 770 772 771 764 766 766 761 762 767 766 771 761 763 768 760 762 765 779 785 785 785
820 815 809 803 798 794 788 783 778 773 769 768 768 773 773 773 773 779 781 781 784 808 827 775 766 768 770 771 770 763 764 767 761 763 761 761 758 760 763 760 752 754 771 781 785 782 795
817 813 807 802 796 790 784 776 772 769 763 761 764 766 770 767 771 776 780 782 803 817 779 778 769 766 767 767 766 762 763 763 765 771 771 765 766 764 761 756 757 763 777 791 793 801 796
814 809 804 800 794 786 778 774 766 760 758 756 762 763 766 764 770 775 779 792 807 779 776 759 760 766 770 767 765 765 765 770 764 770 781 783 776 773 772 773 773 775 770 779 784 797 792
812 806 801 797 790 783 776 769 758 753 751 753 760 763 764 763 771 775 783 810 782 770 756 755 762 770 771 767 767 766 766 770 767 768 780 786 786 776 773 774 774 769 780 772 790 802 800
808 802 797 792 786 781 774 766 751 730 738 750 755 757 756 766 772 776 786 776 766 753 749 752 761 759 772 772 767 765 762 765 766 766 767 774 790 777 774 769 769 772 772 789 809 802 792
803 798 792 786 780 775 769 761 756 749 743 749 755 750 755 765 772 775 779 778 753 748 746 753 755 757 761 768 770 765 764 765 762 763 762 770 783 787 778 782 779 778 781 787 796 802 804
797 792 786 780 774 768 761 754 749 746 750 750 750 748 753 764 772 767 765 754 744 746 747 748 751 751 760 767 768 768 764 765 761 762 767 767 785 807 784 780 777 779 777 785 803 799 817
789 785 779 774 768 761 753 746 740 740 740 744 746 746 754 761 762 763 757 746 744 746 748 749 750 747 748 759 767 764 764 763 761 764 766 768 790 812 799 789 782 782 780 779 789 804 818
782 777 772 766 760 753 745 741 731 724 732 737 743 744 752 758 757 758 754 743 745 742 743 745 746 746 750 752 757 765 764 766 764 766 766 768 785 791 807 790 786 785 780 780 791 826 803
774 769 764 758 751 746 739 729 722 713 715 730 735 734 736 742 749 753 751 743 741 743 742 744 748 748 748 758 760 764 761 767 766 767 771 776 793 798 780 779 780 780 778 781 789 784 794
766 761 756 750 743 735 732 722 715 714 718 725 727 728 735 739 740 750 751 744 740 742 743 746 748 749 750 758 756 765 763 764 767 773 774 781 803 791 797 784 784 783 782 781 783 780 782
758 753 748 742 735 728 721 713 707 713 721 722 723 720 723 735 742 748 749 739 730 739 742 742 746 753 756 757 756 756 758 761 765 774 779 781 797 806 811 799 791 793 785 782 779 777 776
751 746 740 732 727 721 716 709 696 705 718 721 722 721 722 736 738 739 735 733 730 736 743 748 748 751 756 755 756 759 761 766 770 771 769 784 790 809 816 805 820 775 770 772 776 773 774
745 740 732 727 720 715 711 706 704 708 716 720 724 722 720 735 735 737 732 734 737 741 747 751 754 754 754 757 770 777 781 772 775 778 774 776 787 789 813 822 791 769 770 772 773 779 780
739 733 729 722 715 707 701 696 698 703 713 720 724 723 720 726 742 745 737 736 745 749 756 757 756 755 757 765 768 780 786 782 786 780 777 778 781 794 801 806 790 774 768 767 771 791 784
731 727 722 717 711 702 695 692 698 706 714 722 725 724 723 736 749 747 741 741 743 750 761 760 759 760 761 772 776 780 789 777 788 790 784 783 787 796 797 808 789 773 767 767 786 789 783
724 720 717 713 708 701 693 692 698 708 716 724 729 726 725 742 752 750 748 746 747 749 757 762 763 765 771 770 775 780 782 778 779 781 786 789 797 800 799 799 796 768 770 773 777 781 782
720 715 713 711 705 699 693 692 698 708 716 724 728 727 727 735 755 754 753 752 752 753 757 764 767 768 768 779 780 780 776 783 783 785 778 782 781 785 785 783 773 772 771 774 776 780 780
Wind_Speed
28 29 31 29 28 30 34 27 19 17 16 16 13 12 13 15 15 14 16 14 14 14 10 11 13 13 8 2 5 2 8 6 6 1 5 6 13 8 13 7 7 14 11 8 3 8 5
31 32 30 32 33 33 31 33 20 18 17 16 13 12 12 15 15 14 15 15 14 12 12 10 11 10 2 4 2 5 5 8 4 2 2 8 3 4 8 6 7 7 3 9 11 3 6
34 33 32 36 34 33 35 31 26 19 19 15 15 11 12 13 15 14 16 15 14 11 13 11 11 6 3 10 4 5 7 4 4 2 2 0 8 7 7 4 4 10 6 6 8 3 4
34 35 36 38 36 34 32 30 29 21 20 18 15 11 10 12 16 14 16 13 13 11 11 10 10 5 5 5 4 4 5 4 1 4 3 2 3 4 3 5 2 9 5 5 6 1 4
33 35 35 39 40 40 36 29 29 28 21 18 13 13 9 13 14 14 15 15 12 11 10 8 5 4 5 6 7 7 7 6 2 3 1 1 1 2 5 3 3 0 4 8 4 1 7
32 34 36 38 41 40 38 36 33 35 23 17 15 14 9 12 11 14 14 17 7 5 3 4 7 5 4 4 6 7 8 11 4 3 3 0 2 1 6 3 10 5 7 6 6 3 7
32 33 36 37 40 41 42 41 41 34 26 16 16 11 10 10 10 11 12 2 4 2 2 6 4 3 2 4 5 2 2 5 4 3 3 1 3 6 10 8 5 8 11 9 6 5 3
34 34 34 37 40 40 41 41 44 30 27 17 15 12 11 7 8 6 6 1 3 2 4 8 8 1 2 1 2 3 1 3 2 3 3 3 4 5 7 8 7 10 16 6 4 5 3
36 36 35 34 36 40 39 38 42 43 30 18 13 15 8 2 4 1 4 2 2 1 1 3 3 3 3 4 3 2 2 1 3 4 3 4 3 5 9 15 11 9 10 8 5 12 8
37 36 37 34 35 40 41 39 34 35 25 19 15 14 6 3 2 3 3 5 3 1 3 3 1 2 3 2 2 6 8 3 3 3 4 4 3 5 9 5 2 6 10 10 10 2 4
38 38 37 39 35 38 40 40 33 33 26 22 15 13 7 8 6 4 4 4 3 3 3 5 1 3 1 2 3 2 7 4 5 2 1 2 6 7 9 5 6 6 15 16 13 5 4
35 36 36 38 37 38 39 39 41 31 27 24 14 13 7 9 6 5 5 5 3 5 4 2 2 2 2 4 2 3 2 2 4 6 5 2 1 3 2 5 3 20 14 5 3 2 4
33 34 35 36 39 39 39 41 41 39 26 24 17 14 13 12 5 10 8 3 4 4 3 3 4 3 3 1 1 1 2 3 2 3 5 8 5 6 5 6 8 18 7 2 3 2 4
34 34 35 37 38 35 39 45 49 24 22 24 18 13 18 10 9 12 6 4 3 5 5 4 4 2 1 3 1 2 1 3 4 4 4 3 2 7 8 4 2 2 4 3 4 3 3
34 34 36 38 36 37 34 45 46 39 25 24 17 19 12 9 12 11 4 2 6 6 6 10 6 3 1 2 2 2 1 2 0 2 5 4 3 3 1 2 1 4 5 2 5 3 3
35 34 35 36 37 38 38 41 45 24 36 29 21 12 9 14 12 7 3 5 4 4 6 10 6 7 5 3 2 1 2 1 2 3 3 5 4 3 4 1 3 4 1 3 3 3 3
36 37 37 37 40 39 37 41 39 11 25 30 7 3 13 18 10 1 4 6 5 4 3 6 5 4 3 5 4 2 2 1 1 1 1 4 4 3 3 5 2 4 2 4 4 2 3
37 38 38 39 41 42 39 41 38 31 26 25 3 2 22 21 3 3 5 4 4 5 1 3 4 2 6 8 3 4 4 3 3 3 2 2 5 3 1 2 0 0 0 3 4 2 2
38 39 40 40 41 42 42 41 37 39 40 16 2 2 16 8 5 4 4 6 2 4 5 5 5 2 4 6 5 4 3 3 1 3 3 1 2 3 5 5 3 2 3 2 4 3 3
38 39 39 39 41 40 39 40 47 27 47 13 3 4 3 3 1 4 4 9 4 4 4 4 3 3 5 3 2 6 3 3 3 3 5 3 3 4 5 5 3 3 4 4 5 3 4
37 38 38 37 40 39 35 43 38 23 53 13 3 3 4 7 9 7 5 7 5 5 1 5 2 3 4 4 3 3 4 2 4 3 4 3 3 3 0 1 2 1 3 5 7 4 5
38 38 38 38 39 39 38 42 32 28 41 2 3 4 2 3 9 13 4 5 8 4 5 3 4 5 4 4 5 6 7 3 4 3 2 2 1 2 4 4 4 3 5 4 5 2 5
39 38 38 37 36 34 39 41 33 42 36 2 3 1 4 7 5 7 5 5 12 9 1 5 5 5 7 6 3 5 4 6 7 7 4 3 4 3 2 3 3 6 7 8 4 4 6
39 38 38 37 36 34 34 36 18 47 34 3 3 2 3 3 6 7 8 4 12 6 6 3 5 6 3 3 4 6 8 7 5 2 4 5 4 2 1 2 1 5 1 3 7 4 5
38 36 36 35 33 35 34 34 28 42 38 6 6 3 2 3 2 4 2 5 6 6 5 4 4 2 4 5 4 4 3 3 3 4 3 5 4 3 3 3 5 3 3 4 4 1 4
36 35 34 33 33 40 41 33 17 40 38 13 10 9 1 5 1 3 3 6 5 4 3 3 3 2 4 3 3 4 4 4 4 2 3 4 4 3 2 3 5 4 1 2 3 2 5
36 34 32 30 32 40 38 9 17 42 40 17 5 8 3 4 4 4 3 4 4 5 4 3 2 2 3 2 2 3 3 5 5 7 5 3 2 5 4 2 6 5 2 2 5 5 2
34 33 29 27 31 33 25 18 25 37 30 19 2 4 3 3 4 5 4 3 3 3 5 4 4 2 3 3 3 3 3 5 3 5 6 6 5 3 2 2 7 4 4 6 5 3 5
32 30 26 26 29 32 17 29 31 31 28 18 4 16 16 6 3 10 16 16 7 2 4 3 3 2 3 4 1 2 1 1 4 3 2 3 5 4 7 4 2 2 4 2 5 5 4
Wind_Direction
343 325 319 319 315 311 287 272 278 279 278 283 291 299 304 309 311 313 310 309 307 305 293 301 307 323 335 335 255 276 325 335 331 235 190 135 274 207 194 187 170 203 206 174 118 13 316
351 348 339 323 318 317 306 270 271 272 270 271 278 293 301 312 310 312 312 308 308 291 301 308 305 320 314 280 320 315 311 326 328 331 207 165 186 299 238 192 197 171 257 140 153 303 323
343 344 346 341 329 322 318 276 264 269 271 263 272 283 299 314 309 312 311 304 302 291 294 300 301 308 262 248 254 301 290 307 332 289 275 103 31 1 329 140 183 151 122 113 160 116 297
340 338 336 337 342 330 324 301 262 274 269 261 266 273 298 311 305 313 310 304 300 291 288 287 297 280 251 289 287 255 318 301 326 311 279 217 45 280 272 307 103 143 55 107 36 354 330
339 336 333 330 331 335 324 300 274 276 262 259 262 270 295 305 305 312 309 302 291 289 273 281 276 213 271 350 328 295 325 346 290 327 344 352 221 269 69 354 111 207 102 87 63 36 279
338 336 334 332 328 325 328 330 282 276 261 253 258 270 284 304 307 312 313 303 283 279 295 226 249 279 228 279 297 284 244 278 277 323 2 192 34 327 133 282 183 144 109 124 90 316 159
340 338 334 335 331 327 322 323 319 263 255 243 256 264 277 300 303 314 321 3 53 15 236 211 219 227 306 306 323 217 220 261 207 240 167 20 173 191 197 247 318 118 122 118 155 346 27
337 336 334 330 329 326 322 318 325 307 247 236 251 251 274 300 308 307 302 240 130 195 314 243 248 183 229 207 352 5 338 271 277 140 145 146 138 201 179 221 235 139 121 76 101 183 282
338 335 333 331 331 329 323 324 322 322 242 230 238 250 253 307 293 276 202 219 146 179 211 284 176 203 218 175 182 127 240 209 251 119 207 129 102 220 165 224 153 126 126 119 155 180 208
337 332 331 330 329 330 329 323 314 328 245 225 231 234 234 136 172 151 233 167 174 161 66 273 265 260 163 241 285 168 201 273 40 138 75 56 348 296 123 120 176 120 140 122 108 213 171
333 333 334 333 329 331 329 327 311 309 273 231 219 226 206 192 140 170 171 162 148 88 52 272 209 149 139 245 295 258 155 243 84 120 86 134 214 178 116 171 217 148 157 162 155 172 143
331 331 332 333 332 329 326 327 318 305 284 222 207 216 197 178 175 163 169 152 111 45 262 248 146 230 203 184 249 282 214 152 247 45 60 122 197 79 170 247 239 131 108 72 64 107 29
329 330 332 330 328 324 326 330 328 302 278 207 201 199 183 156 150 166 165 99 48 134 281 244 200 203 208 281 128 278 30 15 65 88 11 25 18 344 26 33 49 115 114 104 80 37 164
326 328 330 329 326 323 326 324 319 298 270 195 196 186 178 145 152 160 137 59 118 203 199 212 122 104 321 20 30 126 58 30 31 91 61 76 59 9 341 54 62 98 247 124 124 161 162
325 325 326 326 323 326 326 324 323 300 253 183 170 168 155 151 170 170 89 100 201 207 176 154 133 146 271 299 181 65 174 121 257 118 119 108 23 321 31 331 117 289 36 60 95 19 78
323 323 324 324 324 327 322 324 319 286 182 169 160 160 126 172 178 145 99 242 213 206 139 146 172 201 187 209 139 71 165 302 159 183 174 187 84 14 306 327 17 104 161 51 1 134 147
319 319 321 323 323 325 318 326 324 19 163 166 165 137 147 173 161 182 213 233 219 190 164 144 190 174 154 182 159 168 170 314 131 342 27 138 93 302 19 19 7 13 56 67 117 99 142
313 314 316 319 321 320 318 323 316 300 191 188 198 125 157 163 157 192 215 225 234 156 142 136 133 192 156 162 137 221 174 143 184 176 74 49 124 105 64 251 198 64 179 104 111 251 44
309 310 311 315 316 316 318 321 315 309 180 176 178 123 161 179 188 206 245 229 184 143 168 158 175 182 151 160 145 203 120 332 26 53 104 181 16 71 358 354 6 188 200 114 88 67 197
307 308 309 311 313 313 318 321 313 299 181 167 172 129 134 204 153 187 206 191 197 171 151 147 134 140 124 125 161 171 108 41 66 85 53 100 115 147 177 208 173 203 196 155 122 110 184
309 308 309 311 311 313 320 318 314 224 168 169 196 174 174 181 198 208 179 199 182 148 168 150 125 148 145 150 98 91 108 104 46 46 39 72 101 85 79 70 111 250 244 187 192 181 166
309 309 310 310 312 316 325 317 313 190 175 96 182 145 168 163 142 185 219 219 173 149 130 182 146 180 162 129 173 171 139 167 178 82 88 35 112 85 9 0 29 318 290 261 242 196 245
309 310 311 309 312 319 322 322 331 187 188 139 256 270 127 144 140 152 205 207 177 124 91 164 168 114 110 142 107 152 155 168 159 143 141 114 123 93 266 340 354 310 226 210 209 200 196
309 311 311 312 315 320 319 321 301 187 187 110 282 249 115 145 155 183 176 199 154 139 126 39 112 110 170 127 104 61 62 78 97 127 139 129 101 96 184 28 308 241 229 211 212 240 244
309 311 311 311 314 314 317 309 291 189 183 108 330 325 123 114 147 209 178 124 90 83 78 81 31 109 140 70 88 55 359 57 46 26 71 130 120 138 150 204 295 294 220 180 169 4 330
310 311 311 314 319 319 315 306 272 184 180 198 304 327 30 121 28 329 130 146 127 109 52 55 19 42 69 86 93 145 181 179 190 111 28 100 94 120 157 168 223 248 129 117 105 317 7
310 309 311 316 321 317 321 216 182 181 185 203 305 342 50 102 2 352 115 138 116 90 99 117 139 62 39 92 110 149 219 168 160 164 178 141 152 182 204 209 283 246 166 57 96 220 151
309 308 311 316 315 314 327 192 179 178 180 187 241 356 89 94 22 0 15 66 65 88 135 182 88 348 50 94 131 193 151 212 128 171 173 169 160 194 163 158 262 192 75 163 183 149 159
306 305 309 311 315 318 322 172 168 172 170 166 92 89 87 76 121 86 66 52 45 83 122 38 134 113 156 97 129 117 145 88 146 208 108 199 184 185 179 215 253 292 160 83 155 147 177